Location: Greenwich
(51.4790°N, 0.0090°E)
Time: 08:25:40
(UTC+01:00)

Explorer 7 - Pass Details

Date: 22 April 2024
Orbit: 467 x 625 km, 50.3° (Epoch: 28 May)

Event Time Altitude Azimuth Distance (km) Brightness Sun altitude
Rises 12:31:43 0° 243° (WSW) 2,894 10.6 50.6°
Reaches altitude 10° 12:34:03 10° 239° (WSW) 1,998 10.0 50.7°
Maximum altitude 12:38:34 57° 161° (SSE) 744 10.1 50.8°
Drops below altitude 10° 12:43:05 10° 84° (E) 1,997 9.8 50.9°
Sets 12:45:25 0° 80° (E) 2,893 10.5 50.9°
